Stations météo

Publicité
Gourette, France (7775): Température de l'air & dewpoint: 15.10.2019 08:00:00 - 21.10.2019 08:00:00 (CEST)Gourette, France (7775): Vitesse du vent & gusts: 15.10.2019 08:00:00 - 21.10.2019 08:00:00 (CEST)Gourette, France (7775): Direction du vent: 15.10.2019 08:00:00 - 21.10.2019 08:00:00 (CEST)Gourette, France (7775): reduced air pressure: 15.10.2019 08:00:00 - 21.10.2019 08:00:00 (CEST)Gourette, France (7775): visibility: 15.10.2019 08:00:00 - 21.10.2019 08:00:00 (CEST)Gourette, France (7775): Quantités de précipitations: 15.10.2019 08:00:00 - 21.10.2019 08:00:00 (CEST)
Date & Time tt [°C] td [°C] ff [km/h] ff [knt] fx [km/h] fx [knt] dd ppp [hPa] vv [km] rr [mm]
21.10.2019 08:00:00 - - - - - - - - - -
21.10.2019 07:00:00 20,5 19,8 8 4 15 8 S 1017,8 - 0,0
21.10.2019 06:00:00 20,3 19,5 8 5 23 12 S 1017,9 - 0,0
21.10.2019 05:00:00 20,2 19,7 15 8 21 12 SW 1017,7 10 0,0
21.10.2019 04:00:00 19,8 19,3 11 6 18 10 S 1017,6 - 0,0
21.10.2019 03:00:00 20,1 19,6 7 4 10 6 SSW 1017,5 - 0,0
21.10.2019 02:00:00 20,5 20,2 7 4 11 6 SW 1017,7 - 0,0
21.10.2019 01:00:00 20,5 20,2 8 4 12 7 SSW 1017,2 - 0,0
21.10.2019 00:00:00 20,9 20,6 7 4 14 8 SSW 1017,7 - 0,0
20.10.2019 23:00:00 21,0 20,5 9 5 17 9 S 1017,8 - 0,0
20.10.2019 22:00:00 21,1 20,8 10 6 21 11 SE 1017,4 - 0,0
20.10.2019 21:00:00 21,0 20,7 13 7 23 12 SE 1017,1 - 0,0
20.10.2019 20:00:00 21,0 20,7 13 7 23 12 ESE 1016,9 15 0,0
20.10.2019 19:00:00 21,3 20,8 11 6 21 12 SE 1016,5 - 0,0
20.10.2019 18:00:00 21,4 20,7 14 8 24 13 SSE 1016,0 - 0,0
20.10.2019 17:00:00 21,6 20,8 16 8 31 17 SSE 1016,1 - 0,0
20.10.2019 16:00:00 22,0 21,0 19 10 34 18 SSE 1015,7 - 0,0
20.10.2019 15:00:00 21,9 20,9 22 12 37 20 SSE 1015,5 - 0,0
20.10.2019 14:00:00 22,3 21,1 24 13 41 22 SSE 1015,7 15 0,0
20.10.2019 13:00:00 22,0 20,8 23 13 42 23 S 1015,9 - 0,0
20.10.2019 12:00:00 21,9 20,9 25 14 43 23 SSE 1016,4 - 0,0
20.10.2019 11:00:00 19,9 19,6 12 6 20 11 S 1016,8 15 1,4
20.10.2019 10:00:00 19,8 19,3 11 6 32 17 SSW 1016,8 - 8,0
20.10.2019 09:00:00 19,8 19,3 16 9 34 19 SSW 1016,5 - 0,2
20.10.2019 08:00:00 19,2 18,5 16 8 33 18 S 1015,9 - 2,0
20.10.2019 07:00:00 20,2 18,5 21 12 39 21 SSE 1015,6 - 0,0
20.10.2019 06:00:00 19,6 18,1 18 10 31 17 S 1015,9 - 0,0
20.10.2019 05:00:00 18,7 17,7 18 10 33 18 SSW 1015,6 15 0,0
20.10.2019 04:00:00 19,5 18,0 20 11 28 15 S 1015,8 - 0,0
20.10.2019 03:00:00 19,0 18,0 13 7 24 13 SSW 1016,3 - 0,0
20.10.2019 02:00:00 18,6 17,8 15 8 22 12 SSW 1016,5 - 0,0
20.10.2019 01:00:00 18,3 17,3 18 10 24 13 SSW 1016,4 - 0,0
20.10.2019 00:00:00 18,7 17,4 17 9 26 14 SSW 1016,5 - 0,0
19.10.2019 23:00:00 19,1 17,8 19 10 29 16 SSW 1016,4 - 0,0
19.10.2019 22:00:00 19,6 18,1 21 11 36 20 S 1016,1 - 0,0
19.10.2019 21:00:00 19,9 18,2 21 12 34 18 S 1015,7 - 0,0
19.10.2019 20:00:00 20,0 18,0 17 9 34 18 S 1015,7 - 0,0
19.10.2019 19:00:00 20,2 17,8 21 11 39 21 S 1015,5 - 0,0
19.10.2019 18:00:00 20,6 17,6 22 12 41 22 S 1015,3 - 0,0
19.10.2019 17:00:00 20,9 18,3 20 11 39 21 S 1015,3 15 0,0
19.10.2019 16:00:00 21,7 18,5 19 10 37 20 S 1015,3 - 0,0
19.10.2019 15:00:00 21,9 17,5 22 12 38 21 S 1015,1 - 0,0
19.10.2019 14:00:00 22,4 17,5 19 11 33 18 SSE 1015,2 20 0,0
19.10.2019 13:00:00 22,0 16,9 20 11 32 18 SSE 1016,0 - 0,0
19.10.2019 12:00:00 22,6 16,8 18 10 34 18 S 1016,3 - 0,0
19.10.2019 11:00:00 21,8 15,9 20 11 31 17 SSW 1016,4 20 0,0
19.10.2019 10:00:00 20,7 14,6 14 7 19 10 S 1016,4 - 0,0
19.10.2019 09:00:00 18,1 13,6 10 5 13 7 S 1016,0 - 0,0
19.10.2019 08:00:00 16,9 13,4 8 4 11 6 SSW 1015,8 - 0,0
19.10.2019 07:00:00 16,7 13,4 9 5 10 5 SSW 1015,9 - 0,0
19.10.2019 06:00:00 16,1 13,6 10 5 13 7 SSW 1016,0 - 0,0
19.10.2019 05:00:00 16,7 14,2 8 4 9 5 SW 1016,1 - 0,0
19.10.2019 04:00:00 17,5 14,4 3 2 7 4 SW 1016,2 - 0,0
19.10.2019 03:00:00 18,1 14,6 5 3 10 5 SSE 1016,4 - 0,0
19.10.2019 02:00:00 18,0 13,7 2 1 6 4 NE 1016,8 - 0,0
19.10.2019 01:00:00 17,7 13,8 6 3 13 7 S 1016,7 - 0,0
19.10.2019 00:00:00 17,4 13,7 11 6 23 12 SW 1016,9 - 0,0
18.10.2019 23:00:00 17,6 15,4 16 9 19 11 SW 1017,3 - 0,0
18.10.2019 22:00:00 17,9 15,9 12 6 16 9 SSW 1017,5 - 0,0
18.10.2019 21:00:00 17,7 16,0 12 7 15 8 SW 1017,5 - 0,0
18.10.2019 20:00:00 18,0 16,3 13 7 15 8 SW 1017,4 - 0,0
18.10.2019 19:00:00 18,7 16,3 11 6 16 9 SSW 1017,2 - 0,0
18.10.2019 18:00:00 19,7 16,3 10 6 23 12 S 1017,1 - 0,0
18.10.2019 17:00:00 20,2 16,6 12 7 26 14 SSE 1017,1 16 0,0
18.10.2019 16:00:00 21,8 16,7 14 7 23 12 SSE 1017,1 - 0,0
18.10.2019 15:00:00 22,3 16,6 10 5 20 11 SE 1017,2 - 0,0
18.10.2019 14:00:00 21,9 17,3 10 5 22 12 E 1017,8 16 0,0
18.10.2019 13:00:00 21,8 17,0 10 6 20 11 E 1018,4 - 0,0
18.10.2019 12:00:00 22,0 16,0 9 5 16 9 E 1018,6 - 0,0
18.10.2019 11:00:00 21,8 16,1 8 4 15 8 E 1018,6 - 0,0
18.10.2019 10:00:00 20,2 16,0 4 2 8 4 SSW 1018,6 - 0,0
18.10.2019 09:00:00 18,8 15,5 4 2 9 5 WSW 1018,5 - 0,0
18.10.2019 08:00:00 17,6 13,9 7 4 9 5 W 1018,3 - 0,0
18.10.2019 07:00:00 17,3 14,0 4 2 6 4 SW 1018,2 - 0,0
18.10.2019 06:00:00 17,5 13,0 4 2 5 3 W 1018,4 - 0,0
18.10.2019 05:00:00 17,3 13,0 3 2 7 4 W 1018,6 16 0,0
18.10.2019 04:00:00 17,0 12,9 4 2 8 4 N 1018,7 - 0,0
18.10.2019 03:00:00 16,6 13,1 4 2 6 4 E 1019,1 - 0,0
18.10.2019 02:00:00 16,4 12,9 3 2 9 5 SE 1019,2 - 0,0
18.10.2019 01:00:00 17,3 13,2 6 3 10 5 S 1019,4 - 0,0
18.10.2019 00:00:00 17,5 13,4 8 4 12 6 SW 1019,7 - 0,0
17.10.2019 23:00:00 17,2 13,7 11 6 14 8 SW 1019,8 - 0,0
17.10.2019 22:00:00 16,9 14,0 11 6 14 8 SW 1019,7 - 0,0
17.10.2019 21:00:00 17,1 14,9 12 6 14 7 SW 1019,6 - 0,0
17.10.2019 20:00:00 17,0 15,0 13 7 14 7 SW 1019,4 - 0,0
17.10.2019 19:00:00 17,8 15,2 8 4 13 7 SSW 1019,1 - 0,0
17.10.2019 18:00:00 19,1 14,8 9 5 16 9 S 1019,2 - 0,0
17.10.2019 17:00:00 20,8 14,9 9 5 21 11 SE 1019,2 - 0,0
17.10.2019 16:00:00 21,2 14,8 11 6 22 12 SE 1019,2 - 0,0
17.10.2019 15:00:00 21,6 14,5 13 7 26 14 SSE 1019,4 - 0,0
17.10.2019 14:00:00 21,7 14,6 14 8 26 14 SE 1019,6 - 0,0
17.10.2019 13:00:00 21,6 15,0 15 8 27 14 SE 1020,0 - 0,0
17.10.2019 12:00:00 21,9 14,8 15 8 24 13 SE 1020,4 - 0,0
17.10.2019 11:00:00 21,7 14,3 10 5 16 9 S 1020,5 - 0,0
17.10.2019 10:00:00 17,6 13,5 10 6 13 7 SSW 1020,5 - 0,0
17.10.2019 09:00:00 17,2 12,1 9 5 11 6 SW 1020,1 - 0,0
17.10.2019 08:00:00 16,5 13,2 11 6 16 8 SW 1019,8 - 0,0
17.10.2019 07:00:00 16,6 10,2 13 7 14 8 WSW 1019,5 - 0,0
17.10.2019 06:00:00 17,2 9,4 8 4 9 5 SW 1019,9 - 0,0
17.10.2019 05:00:00 17,4 10,3 6 4 10 5 WSW 1019,7 15 0,0
17.10.2019 04:00:00 17,4 9,6 5 3 7 4 WSW 1019,8 - 0,0
17.10.2019 03:00:00 18,3 10,9 3 1 5 3 W 1020,2 - 0,0
17.10.2019 02:00:00 18,2 10,6 2 1 9 5 WSW 1020,0 - 0,0
17.10.2019 01:00:00 17,5 11,3 9 5 11 6 WSW 1020,0 - 0,0
17.10.2019 00:00:00 17,5 11,7 10 5 15 8 SW 1019,9 - 0,0
16.10.2019 23:00:00 17,0 12,1 13 7 14 8 SW 1019,7 - 0,0
16.10.2019 22:00:00 17,0 12,9 12 7 14 8 SW 1019,5 - 0,0
16.10.2019 21:00:00 17,0 13,5 13 7 16 9 SW 1019,5 - 0,0
16.10.2019 20:00:00 17,4 14,1 11 6 14 8 SW 1019,3 - 0,0
16.10.2019 19:00:00 18,4 14,1 9 5 13 7 S 1018,8 - 0,0
16.10.2019 18:00:00 19,9 13,6 8 4 15 8 SE 1018,4 - 0,0
16.10.2019 17:00:00 21,6 13,2 5 3 16 9 SSE 1018,0 15 0,0
16.10.2019 16:00:00 22,1 10,6 7 4 18 10 ESE 1017,9 - 0,0
16.10.2019 15:00:00 22,2 10,3 10 5 18 10 E 1017,8 - 0,0
16.10.2019 14:00:00 22,3 9,1 8 4 16 9 E 1017,7 - 0,0
16.10.2019 13:00:00 21,6 11,9 7 4 14 8 E 1018,1 - 0,0
16.10.2019 12:00:00 21,0 11,6 8 4 17 9 ESE 1018,0 - 0,0
16.10.2019 11:00:00 22,4 12,1 3 2 10 5 ESE 1017,5 - 0,0
16.10.2019 10:00:00 21,2 10,1 2 1 13 7 SSW 1017,1 - 0,0
16.10.2019 09:00:00 19,1 9,0 10 5 17 9 NW 1016,7 - 0,0
16.10.2019 08:00:00 18,0 8,3 13 7 23 12 NW 1015,6 - 0,0
16.10.2019 07:00:00 18,0 7,4 11 6 17 9 NW 1015,3 - 0,0
16.10.2019 06:00:00 18,5 7,0 13 7 19 11 NW 1015,0 - 0,0
16.10.2019 05:00:00 18,3 5,2 8 5 15 8 WSW 1014,7 - 0,0
16.10.2019 04:00:00 16,7 5,6 9 5 14 7 W 1014,7 - 0,0
16.10.2019 03:00:00 17,3 4,3 12 7 45 24 W 1014,2 - 0,0
16.10.2019 02:00:00 17,9 6,7 32 17 58 31 SW 1013,6 - 0,0
16.10.2019 01:00:00 17,5 6,7 18 10 35 19 SW 1013,6 - 0,0
16.10.2019 00:00:00 18,2 6,1 28 15 51 27 SW 1013,3 - 0,0
15.10.2019 23:00:00 17,1 5,7 17 9 33 18 SW 1013,2 - 0,0
15.10.2019 22:00:00 19,6 2,0 6 3 37 20 SSE 1013,4 - 0,0
15.10.2019 21:00:00 19,9 4,4 20 11 51 28 W 1012,2 - 0,0
15.10.2019 20:00:00 19,7 10,7 13 7 40 22 WSW 1011,5 - 0,0
15.10.2019 19:00:00 20,8 17,0 12 6 42 23 WNW 1011,1 - 0,0
15.10.2019 18:00:00 22,2 13,8 - - 41 22 - 1010,3 - 0,0
15.10.2019 17:00:00 23,9 21,4 10 6 24 13 SW 1010,1 15 0,0
15.10.2019 16:00:00 22,2 19,9 16 9 26 14 SW 1011,3 - 0,6
15.10.2019 15:00:00 22,7 19,3 18 10 27 15 SSW 1010,7 - 0,2
15.10.2019 14:00:00 22,8 20,0 16 9 28 15 SSW 1011,5 - 0,0
15.10.2019 13:00:00 21,5 20,5 18 10 39 21 SSW 1012,7 - 1,6
15.10.2019 12:00:00 22,5 20,2 18 10 - - S 1012,9 - 0,0
15.10.2019 11:00:00 21,7 19,8 19 10 31 17 SSW 1013,3 - 0,0
15.10.2019 10:00:00 20,0 19,7 23 12 32 17 SSW 1013,8 - 0,0
15.10.2019 09:00:00 19,4 18,9 13 7 36 20 SW 1013,9 - 5,5
15.10.2019 08:00:00 19,8 18,8 12 7 40 21 SSW 1013,8 - 0,0

tt = Température de l'air
td = dewpoint
ff = Vitesse du vent
fx = gusts
dd = Direction du vent
ppp = reduced air pressure
vv = visibility
rr = Quantités de précipitations

stations d'obs. à proximité